Overview Statistics Trail Chart Weather Telemetry Raw packets
 

This is the latest recevied weather packets stored in our database for station/object VK4TW-13. If no packets are shown the sender has not sent any weather packets the latest 10 day(s).

<< 1 2 3 4 5 6 >>
Time Temp. Humidity Pressure Rain* Wind** Luminosity Snow
1788645973 21.11° C 100% 1019.5 hPa 0 mm - - -
1788645374 20.56° C 100% 1019.6 hPa 0 mm - - -
1788644771 19.44° C 100% 1019.6 hPa 0 mm - - -
1788644171 18.89° C 100% 1019.5 hPa 0 mm - - -
1788643571 18.33° C 100% 1019.4 hPa 0 mm - - -
1788642969 17.78° C 100% 1019.4 hPa 0 mm - - -
1788642368 17.22° C 100% 1019.4 hPa 0 mm - - -
1788641768 16.67° C 100% 1019.4 hPa 0 mm - - -
1788641166 16.67° C 100% 1019.1 hPa 0 mm - - -
1788640566 16.11° C 100% 1019.1 hPa 0 mm - - -
1788639965 16.11° C 100% 1019 hPa 0 mm - - -
1788639364 16.11° C 100% 1019 hPa 0 mm - - -
1788638763 16.11° C 100% 1018.8 hPa 0 mm - - -
1788638163 16.11° C 100% 1018.8 hPa 0 mm - - -
1788637561 16.67° C 100% 1018.6 hPa 0 mm - - -
1788636986 16.67° C 100% 1018.4 hPa 0 mm - - -
1788636360 16.11° C 100% 1018.4 hPa 0 mm - - -
1788635758 16.11° C 100% 1018.4 hPa 0 mm - - -
1788635162 15.56° C 100% 1018.3 hPa 0 mm - - -
1788634557 15.56° C 100% 1018.2 hPa 0 mm - - -
1788633956 15.56° C 100% 1018.1 hPa 0 mm - - -
1788633355 15° C 100% 1018.1 hPa 0 mm - - -
1788632754 15° C 100% 1017.9 hPa 0 mm - - -
1788632153 15° C 100% 1017.8 hPa 0 mm - - -
1788631552 16.11° C 100% 1017.5 hPa 0 mm - - -

* Rain since midnight (hover to see other rain measurements)
** Current wind speed in m/s (hover to see current wind gust speed)